Location: *
(55.6049°S, 142.1985°W)
Time: 00:01:31
(UTC+00:00)

USA 305 - Pass Details

Date: 12 May 2021
Orbit: 567 x 573 km, 54.0° (Epoch: 07 May)

Event Time Altitude Azimuth Distance (km) Brightness Sun altitude
Exits shadow 14:42:56 43° 326° (NNW) 830 3.4 -20.9°
Maximum altitude 14:44:00 56° 17° (NNE) 695 3.3 -20.8°
Drops below altitude 10° 14:48:16 10° 95° (E) 1,906 6.7 -20.2°
Sets 14:50:34 0° 99° (E) 2,806 7.9 -19.9°
